Location: Camp at the Woods
(43.2055°N, 93.0905°W)
Time: 11:38:02
(UTC+00:00)

Cosmos 1461 - Pass Details

Date: 05 December 2023
Orbit: 497 x 603 km, 65.0° (Epoch: 20 February)

Event Time Altitude Azimuth Distance (km) Brightness Sun altitude
Rises 12:53:18 0° 210° (SSW) 2,860 6.4 -6.5°
Reaches altitude 10° 12:55:34 10° 210° (SSW) 1,957 5.6 -6.1°
Maximum altitude 13:00:01 84° 122° (ESE) 613 3.1 -5.4°
Drops below altitude 10° 13:04:24 10° 35° (NE) 1,935 5.7 -4.7°
Sets 13:06:38 0° 35° (NE) 2,825 6.6 -4.3°
